Location: Mentone
(34.5413°N, 85.5351°W)
Time: 04:50:21
(UTC-06:00)

Centaur AC-72 - Visible Passes

Search period start: 13 February 2016 00:00
Search period end: 23 February 2016 00:00
Orbit: 1102 x 35253 km, 19.6° (Epoch: 13 February)

Date Brightness Start Highest point End Pass type
(mag) Time Alt. Az. Time Alt. Az. Time Alt. Az.
13 Feb 7.8 14:15:49 10° SE 22:41:43 46° ESE 23:27:14 10° E visible
14 Feb 8.6 16:43:41 10° E 18:41:55 17° E 18:42:41 17° E visible
14 Feb 9.4 23:02:46 10° WSW 00:22:03 17° W 02:36:50 10° W visible
15 Feb 6.6 19:21:16 10° SW 21:57:49 50° SW 05:01:46 10° SSE visible
16 Feb 7.2 16:23:05 10° SSW 22:31:59 69° SSW 02:10:36 10° ESE visible
17 Feb 7.8 14:00:46 10° SE 21:16:40 53° ESE 23:10:51 10° E visible
18 Feb 8.6 16:34:53 10° E 18:25:05 16° E 18:41:50 16° E visible
18 Feb 9.5 22:42:01 10° WSW 00:06:11 18° W 02:36:26 10° W visible
19 Feb 6.6 19:04:37 10° SW 21:42:00 51° SW 04:45:50 10° SSE visible
20 Feb 7.2 16:06:56 10° SSW 22:22:11 69° SSW 01:54:35 10° ESE visible
21 Feb 7.8 13:45:51 10° ESE 20:59:27 52° ESE 22:54:26 10° E visible
22 Feb 8.6 16:26:47 10° E 18:08:17 16° E 18:39:57 14° E visible
